CPA872 VHHH-KSFO

Flight info

Callsign CPA872
Flight time N/A
Altitude 31100
Route ADLAD DCT BEKOL DCT VIPAP R200 SUMDO/N0509F310 DCT TUBBY DCT ELATO A1 KADLO L1 SALMI/N0498F330 B576 SOSDO DCT GUKSU DCT PAPLU Y571 PSN A586 TENAS Y437 KANSU/K0906F330 L822 TONIN B467 NULAR/K0867F250 B233 BULOD/K0898F330 R810 BAGOM G227 ROMUK/K0919F350 R968 NAMUL T564 GITRU B327 IRKAN G583 BESAT/N0483F350 G583 MARCC DCT KIVAK B932 LESAD DCT JOTPU/N0412F170 V319 BET/N0493F350 J123 KOWOK/N0495F370 J123 AKN/N0413F170 V322 WORRI T368 OSBOE/N0496F370 DCT JUTGO DCT CJAYY B757 KATCH B453 KANUA/N0478F390 B453 KYLLE DCT HEMLO C1416 FOT/N0422F170 V494 JENNI DCT OSUDE DCT AMAKR DCT QUINN BDEGA4
Aircraft B77W/H-SDE1E2E3FGHIJ2J3J4J5M1RWXY/LB1D1

Departure

Time N/A
Airport Hong Kong International Airport (VHHH)

Arrival

Time 2026-05-05 20:10
Airport San Francisco International Airport (KSFO)
Time Latitude Longitude Altitude Speed Heading
2026-05-05 19:20 41.25676 -124.75762 37061 ft 485 kts 140°
2026-05-05 19:20 41.22863 -124.73222 37061 ft 485 kts 140°
2026-05-05 19:21 41.17244 -124.68159 37063 ft 485 kts 140°
2026-05-05 19:21 41.11646 -124.63123 37059 ft 484 kts 140°
2026-05-05 19:22 41.06071 -124.58120 37063 ft 484 kts 140°
2026-05-05 19:22 41.00463 -124.53097 37058 ft 484 kts 140°
2026-05-05 19:23 40.94851 -124.48080 37054 ft 483 kts 140°
2026-05-05 19:23 40.89238 -124.43074 37053 ft 484 kts 139°
2026-05-05 19:24 40.83612 -124.38067 37040 ft 484 kts 139°
2026-05-05 19:24 40.77984 -124.33068 37048 ft 486 kts 140°
2026-05-05 19:25 40.72387 -124.28106 37045 ft 484 kts 140°
2026-05-05 19:25 40.66370 -124.23904 37049 ft 498 kts 155°
2026-05-05 19:26 40.59471 -124.21796 37053 ft 506 kts 164°
2026-05-05 19:26 40.52523 -124.20139 37057 ft 507 kts 164°
2026-05-05 19:27 40.45572 -124.18512 37057 ft 506 kts 165°
2026-05-05 19:27 40.38587 -124.16891 37049 ft 507 kts 165°
2026-05-05 19:28 40.31649 -124.15292 37044 ft 507 kts 164°
2026-05-05 19:28 40.24654 -124.13686 37038 ft 506 kts 164°
2026-05-05 19:29 40.17671 -124.12089 37036 ft 507 kts 164°
2026-05-05 19:29 40.10695 -124.10498 37037 ft 504 kts 164°
2026-05-05 19:30 40.03711 -124.08908 37038 ft 507 kts 164°
2026-05-05 19:30 39.96720 -124.07321 37044 ft 507 kts 164°
2026-05-05 19:31 39.89711 -124.05733 37039 ft 507 kts 164°
2026-05-05 19:31 39.82708 -124.04150 37038 ft 507 kts 164°
2026-05-05 19:32 39.75759 -124.02590 37033 ft 509 kts 165°
2026-05-05 19:32 39.68700 -124.01399 37038 ft 510 kts 167°
2026-05-05 19:33 39.61630 -124.00249 37039 ft 510 kts 167°
2026-05-05 19:33 39.54477 -123.99074 37041 ft 510 kts 166°
2026-05-05 19:34 39.47413 -123.97908 37039 ft 508 kts 166°
2026-05-05 19:35 39.37441 -123.94189 37048 ft 492 kts 151°
2026-05-05 19:35 39.31037 -123.90898 37048 ft 494 kts 151°
2026-05-05 19:36 39.24644 -123.87615 37054 ft 494 kts 150°
2026-05-05 19:36 39.18242 -123.84331 37053 ft 491 kts 150°
2026-05-05 19:37 39.11904 -123.81088 37048 ft 481 kts 150°
2026-05-05 19:37 39.05745 -123.77940 37053 ft 471 kts 150°
2026-05-05 19:37 39.02726 -123.76305 37047 ft 460 kts 144°
2026-05-05 19:38 39.00024 -123.74287 37041 ft 445 kts 136°
2026-05-05 19:38 38.97596 -123.71826 37038 ft 430 kts 128°
2026-05-05 19:38 38.95463 -123.69164 37002 ft 423 kts 126°
2026-05-05 19:38 38.93383 -123.66501 36829 ft 419 kts 126°
2026-05-05 19:39 38.91312 -123.63845 36483 ft 420 kts 126°
2026-05-05 19:39 38.89222 -123.61165 36049 ft 421 kts 126°
2026-05-05 19:39 38.87151 -123.58514 35465 ft 422 kts 126°
2026-05-05 19:39 38.85072 -123.55851 34782 ft 427 kts 126°
2026-05-05 19:40 38.82952 -123.53142 34015 ft 428 kts 126°
2026-05-05 19:40 38.80828 -123.50429 33213 ft 428 kts 126°
2026-05-05 19:40 38.78701 -123.47714 32409 ft 432 kts 126°
2026-05-05 19:40 38.76564 -123.44991 31580 ft 434 kts 127°
2026-05-05 19:41 38.74435 -123.42279 30711 ft 436 kts 127°
2026-05-05 19:41 38.72240 -123.39486 29818 ft 440 kts 127°
2026-05-05 19:41 38.70065 -123.36720 28961 ft 443 kts 127°
2026-05-05 19:41 38.67870 -123.33932 28125 ft 443 kts 128°
2026-05-05 19:42 38.65705 -123.31191 27308 ft 434 kts 128°
2026-05-05 19:42 38.63554 -123.28470 26487 ft 425 kts 128°
2026-05-05 19:42 38.61485 -123.25854 25713 ft 416 kts 129°
2026-05-05 19:42 38.59444 -123.23273 24946 ft 408 kts 129°
2026-05-05 19:43 38.57459 -123.20764 24279 ft 398 kts 129°
2026-05-05 19:43 38.55491 -123.18279 24039 ft 388 kts 129°
2026-05-05 19:43 38.53538 -123.15805 24060 ft 403 kts 129°
2026-05-05 19:43 38.51533 -123.13272 24041 ft 402 kts 129°
2026-05-05 19:44 38.49551 -123.10772 24026 ft 400 kts 129°
2026-05-05 19:44 38.47574 -123.08279 23715 ft 393 kts 129°
2026-05-05 19:44 38.45639 -123.05837 23016 ft 396 kts 129°
2026-05-05 19:44 38.43676 -123.03361 22364 ft 397 kts 130°
2026-05-05 19:45 38.41684 -123.00852 21832 ft 395 kts 130°
2026-05-05 19:45 38.39720 -122.98383 21348 ft 391 kts 130°
2026-05-05 19:45 38.37773 -122.95936 20853 ft 388 kts 130°
2026-05-05 19:45 38.35841 -122.93509 20355 ft 386 kts 130°
2026-05-05 19:46 38.33920 -122.91098 19816 ft 385 kts 130°
2026-05-05 19:46 38.32026 -122.88723 19320 ft 382 kts 130°
2026-05-05 19:46 38.30137 -122.86356 19068 ft 376 kts 130°
2026-05-05 19:46 38.28250 -122.83992 19040 ft 381 kts 130°
2026-05-05 19:47 38.26353 -122.81619 19043 ft 380 kts 130°
2026-05-05 19:47 38.24423 -122.79305 19042 ft 385 kts 136°
2026-05-05 19:47 38.22164 -122.77392 19038 ft 388 kts 148°
2026-05-05 19:47 38.19706 -122.76024 18738 ft 385 kts 157°
2026-05-05 19:48 38.17107 -122.75126 18103 ft 388 kts 164°
2026-05-05 19:48 38.14439 -122.74365 17574 ft 388 kts 164°
2026-05-05 19:48 38.11806 -122.73616 17102 ft 387 kts 164°
2026-05-05 19:48 38.09153 -122.72858 16640 ft 384 kts 164°
2026-05-05 19:49 38.06515 -122.72100 16160 ft 381 kts 164°
2026-05-05 19:49 38.04777 -122.71600 15819 ft 380 kts 164°
2026-05-05 19:49 38.01354 -122.70614 15200 ft 377 kts 164°
2026-05-05 19:49 37.98782 -122.69872 14767 ft 375 kts 165°
2026-05-05 19:50 37.96211 -122.69130 14316 ft 373 kts 165°
2026-05-05 19:50 37.93711 -122.68409 14010 ft 367 kts 165°
2026-05-05 19:50 37.91229 -122.67477 13981 ft 368 kts 154°
2026-05-05 19:50 37.89036 -122.65974 13933 ft 351 kts 141°
2026-05-05 19:51 37.87131 -122.64131 13867 ft 331 kts 136°
2026-05-05 19:51 37.85355 -122.62350 13576 ft 323 kts 137°
2026-05-05 19:51 37.83607 -122.60563 13100 ft 322 kts 136°
2026-05-05 19:51 37.81874 -122.58755 12767 ft 313 kts 135°
2026-05-05 19:52 37.80243 -122.57040 12529 ft 297 kts 135°
2026-05-05 19:52 37.78714 -122.55429 12440 ft 273 kts 134°
2026-05-05 19:52 37.77299 -122.53936 12396 ft 251 kts 133°
2026-05-05 19:52 37.76011 -122.52574 12287 ft 232 kts 133°
2026-05-05 19:53 37.74797 -122.51281 12202 ft 234 kts 133°
2026-05-05 19:53 37.73535 -122.49940 12118 ft 234 kts 133°
2026-05-05 19:53 37.72265 -122.48593 12006 ft 234 kts 133°
2026-05-05 19:53 37.71028 -122.47275 11918 ft 235 kts 133°
2026-05-05 19:54 37.69768 -122.45933 11769 ft 234 kts 133°
2026-05-05 19:54 37.68527 -122.44614 11636 ft 233 kts 133°
2026-05-05 19:54 37.67277 -122.43285 11516 ft 232 kts 132°
2026-05-05 19:54 37.66041 -122.41971 11396 ft 232 kts 133°
2026-05-05 19:55 37.64796 -122.40649 11274 ft 231 kts 133°
2026-05-05 19:55 37.63568 -122.39346 11154 ft 231 kts 133°
2026-05-05 19:55 37.62315 -122.38014 11030 ft 230 kts 133°
2026-05-05 19:55 37.61109 -122.36682 10855 ft 229 kts 123°
2026-05-05 19:56 37.60292 -122.34995 10169 ft 230 kts 103°
2026-05-05 19:56 37.59764 -122.33067 9533 ft 233 kts 102°
2026-05-05 19:56 37.59179 -122.31175 8988 ft 234 kts 108°
2026-05-05 19:56 37.58477 -122.29334 8492 ft 231 kts 110°
2026-05-05 19:57 37.57750 -122.27509 7905 ft 232 kts 111°
2026-05-05 19:57 37.57259 -122.26292 7493 ft 233 kts 112°
2026-05-05 19:57 37.56282 -122.23888 6753 ft 232 kts 112°
2026-05-05 19:57 37.55545 -122.22073 6164 ft 231 kts 113°
2026-05-05 19:58 37.54996 -122.20214 5585 ft 225 kts 91°
2026-05-05 19:58 37.55275 -122.18339 5000 ft 216 kts 59°
2026-05-05 19:58 37.56294 -122.16991 4452 ft 209 kts 34°
2026-05-05 19:58 37.57401 -122.15987 4423 ft 187 kts 34°
2026-05-05 19:59 37.58472 -122.15022 4442 ft 185 kts 34°
2026-05-05 19:59 37.59510 -122.14091 4441 ft 183 kts 34°
2026-05-05 19:59 37.60561 -122.13148 4438 ft 184 kts 34°
2026-05-05 19:59 37.61610 -122.12209 4438 ft 183 kts 34°
2026-05-05 20:00 37.62664 -122.11267 4438 ft 183 kts 34°
2026-05-05 20:00 37.63653 -122.10218 4412 ft 186 kts 53°
2026-05-05 20:00 37.64016 -122.08650 4280 ft 193 kts 91°
2026-05-05 20:00 37.63530 -122.07088 4126 ft 195 kts 122°
2026-05-05 20:01 37.62733 -122.05693 3996 ft 196 kts 124°
2026-05-05 20:01 37.61924 -122.04286 3983 ft 195 kts 124°
2026-05-05 20:01 37.61125 -122.02902 3977 ft 195 kts 128°
2026-05-05 20:01 37.60014 -122.01938 3906 ft 192 kts 165°
2026-05-05 20:02 37.58744 -122.01996 3768 ft 180 kts 203°
2026-05-05 20:02 37.57779 -122.02912 3695 ft 171 kts 234°
2026-05-05 20:02 37.57371 -122.04305 3672 ft 167 kts 270°
2026-05-05 20:02 37.57308 -122.05782 3677 ft 168 kts 270°
2026-05-05 20:03 37.57242 -122.07250 3659 ft 168 kts 269°
2026-05-05 20:03 37.57092 -122.08714 3600 ft 170 kts 250°
2026-05-05 20:03 37.56559 -122.10072 3548 ft 172 kts 245°
2026-05-05 20:03 37.56017 -122.11394 3461 ft 171 kts 245°
2026-05-05 20:04 37.55461 -122.12749 3258 ft 170 kts 245°
2026-05-05 20:04 37.54924 -122.14056 3096 ft 169 kts 245°
2026-05-05 20:04 37.54381 -122.15379 2941 ft 167 kts 245°
2026-05-05 20:04 37.53878 -122.16739 2971 ft 171 kts 258°
2026-05-05 20:05 37.53916 -122.18132 2949 ft 151 kts 291°
2026-05-05 20:05 37.54359 -122.19304 2843 ft 142 kts 301°
2026-05-05 20:05 37.54835 -122.20365 2673 ft 138 kts 301°
2026-05-05 20:05 37.55298 -122.21432 2500 ft 137 kts 300°
2026-05-05 20:06 37.55750 -122.22489 2328 ft 137 kts 300°
2026-05-05 20:06 37.56204 -122.23556 2151 ft 137 kts 299°
2026-05-05 20:06 37.56657 -122.24623 1973 ft 137 kts 298°
2026-05-05 20:06 37.57104 -122.25679 1791 ft 136 kts 298°
2026-05-05 20:07 37.57545 -122.26723 1616 ft 133 kts 298°
2026-05-05 20:07 37.57987 -122.27766 1435 ft 134 kts 298°
2026-05-05 20:07 37.58429 -122.28810 1259 ft 134 kts 298°
2026-05-05 20:07 37.58866 -122.29844 1078 ft 133 kts 298°
2026-05-05 20:08 37.59301 -122.30872 903 ft 132 kts 297°
2026-05-05 20:08 37.59740 -122.31906 699 ft 132 kts 298°
2026-05-05 20:08 37.60166 -122.32917 511 ft 130 kts 297°
2026-05-05 20:08 37.60598 -122.33949 362 ft 131 kts 297°
2026-05-05 20:09 37.61033 -122.34956 187 ft 130 kts 297°
2026-05-05 20:09 37.61457 -122.35969 35 ft 129 kts 296°
2026-05-05 20:09 37.61826 -122.36897 19 ft 98 kts 302°
2026-05-05 20:09 37.62087 -122.37479 27 ft 54 kts 297°
2026-05-05 20:10 37.62209 -122.37780 33 ft 23 kts 291°
2026-05-05 20:10 37.62229 -122.37934 35 ft 14 kts 271°
2026-05-05 20:10 37.62229 -122.38051 37 ft 11 kts 272°
2026-05-05 20:10 37.62230 -122.38073 37 ft 0 kts 271°
2026-05-05 20:12 37.62230 -122.38094 37 ft 6 kts 271°
2026-05-05 20:12 37.62228 -122.38184 37 ft 13 kts 268°
2026-05-05 20:12 37.62192 -122.38284 38 ft 10 kts 213°
2026-05-05 20:13 37.62130 -122.38317 38 ft 9 kts 199°
2026-05-05 20:13 37.62066 -122.38341 38 ft 9 kts 188°
2026-05-05 20:13 37.62012 -122.38306 38 ft 9 kts 125°
2026-05-05 20:13 37.61976 -122.38231 38 ft 10 kts 119°
2026-05-05 20:14 37.61941 -122.38144 38 ft 13 kts 117°
2026-05-05 20:14 37.61889 -122.38020 38 ft 16 kts 118°
2026-05-05 20:14 37.61829 -122.37892 36 ft 17 kts 141°
2026-05-05 20:14 37.61713 -122.37865 35 ft 16 kts 187°
2026-05-05 20:15 37.61606 -122.37909 36 ft 15 kts 207°
2026-05-05 20:15 37.61515 -122.37970 37 ft 13 kts 208°
2026-05-05 20:15 37.61431 -122.38023 38 ft 14 kts 207°
2026-05-05 20:15 37.61325 -122.38095 38 ft 18 kts 209°
2026-05-05 20:16 37.61213 -122.38169 38 ft 17 kts 208°
2026-05-05 20:16 37.61108 -122.38239 38 ft 16 kts 207°
2026-05-05 20:16 37.61008 -122.38305 38 ft 15 kts 208°
2026-05-05 20:16 37.60943 -122.38361 38 ft 9 kts 239°
2026-05-05 20:17 37.60945 -122.38430 38 ft 8 kts 270°
2026-05-05 20:17 37.60910 -122.38482 38 ft 8 kts 212°
2026-05-05 20:17 37.60884 -122.38536 38 ft 7 kts 279°
2026-05-05 20:17 37.60904 -122.38602 38 ft 10 kts 295°
2026-05-05 20:18 37.60942 -122.38690 38 ft 11 kts 299°
2026-05-05 20:18 37.60973 -122.38779 37 ft 11 kts 299°
2026-05-05 20:18 37.61015 -122.38854 38 ft 9 kts 311°
2026-05-05 20:18 37.61067 -122.38872 37 ft 8 kts 16°
2026-05-05 20:19 37.61119 -122.38844 38 ft 8 kts 26°
2026-05-05 20:19 37.61170 -122.38812 38 ft 5 kts 13°
2026-05-05 20:19 37.61189 -122.38825 38 ft 4 kts 318°
2026-05-05 20:19 37.61205 -122.38854 38 ft 3 kts 299°
2026-05-05 20:20 37.61213 -122.38873 38 ft 0 kts 298°
2026-05-05 20:20 37.61216 -122.38879 38 ft 2 kts 298°
2026-05-05 20:20 37.61220 -122.38889 38 ft 0 kts 298°
2026-05-05 20:20 37.61220 -122.38890 38 ft 0 kts 298°
2026-05-05 20:21 37.61221 -122.38891 38 ft 0 kts 298°